sat.trackr.live / text

‹ back to catalog

KUIPER-00114

NORAD 65151 · 2025-171V

PAYLOAD ACTIVE UNKNOWN

§ Identity

Operator
Country
US
Launch date
2025-08-11
Launch site
AFETR
Launch vehicle
Mass (kg)
RCS (m²)

External: N2YO · Heavens-Above · Gunter

§ Orbital elements

Epoch: 2026-09-21T15:07:22.101888Z

Period
97.30 min
Inclination
51.9016°
Eccentricity
0.0000211
Mean motion
14.79930368 rev/d
Perigee alt
629.4 km
Apogee alt
629.7 km
Semi-major
7,007.7 km
B*
3.0058e-4
RAAN
29.1416°
Arg perigee
110.9101°
Mean anomaly
249.1884°
Rev number
6,165

§ Raw data

KUIPER-001141 65151U 25171V   26264.63011692  .00002071  00000+0  30058-3 0  99902 65151  51.9016  29.1416 0000211 110.9101 249.1884 14.79930368 61656

JSON: /api/v1/satellites/65151 · /tle

For live sub-satellite position, see the globe view (requires WebGL).

§ Visibility from observer

Set your observer location to see the next 7 days of passes ≥ 10°. The values pass through the URL so the page stays shareable.

No JS? Fill the form by hand. The geolocation button needs JavaScript.